[[{"header":{"parameterUnit":"m.s-1","parameterCategory":1,"la1":30.2991,"la2":30.254,"lo1":-89.0895,"lo2":-89.0444,"dy":0.0017,"dx":0.0017,"nx":28,"ny":28,"refTime":"2023-09-20T03:00:00:Z","depth":0,"parameterNumber":2,"parameterNumberName":"U-component_of_WINDS"},"data":[0,0,0,0,0,0,0,0,0,0,0,0,0,0,0,0,0,0,0,0,0,0,0,0,0,0,0,0,0,0,0,0,0,0,0,0,0,0,0,0,0,0,0,0,0,0,0,0,0,0,0,0,0,0,0,0,0,0,-3.5828,-3.5829,0,-3.5924,-3.5925,-3.5926,-3.5884,-3.5882,-3.5879,-3.5877,-3.5973,-3.5977,-3.5982,0,0,0,0,0,0,0,0,0,0,0,0,0,-3.5605,-3.5609,-3.5828,-3.5829,-3.583,-3.5924,-3.5925,-3.5926,-3.5884,-3.5881,-3.5879,-3.5876,-3.5971,-3.5977,-3.5983,0,0,0,0,0,0,0,0,0,0,0,0,0,-3.5701,-3.561,-3.5828,-3.5821,-3.5821,-3.5924,-3.5925,-3.5927,-3.5885,-3.5881,-3.5878,-3.5875,-3.5969,-3.5976,-3.5983,-3.6098,0,0,-3.6005,-3.6008,0,0,0,0,0,0,0,0,-3.5696,-3.571,-3.582,-3.5821,-3.5822,-3.5888,-3.5882,-3.5984,-3.5886,-3.5861,-3.5877,-3.5873,-3.5947,-3.5956,-3.5982,-3.6102,-3.6106,-3.6006,-3.601,-3.6013,-3.6015,0,0,0,0,0,0,0,-3.5689,-3.5705,-3.5866,-3.5822,-3.5823,-3.5812,-3.5821,-3.5901,-3.5922,-3.5862,-3.586,-3.5872,-3.5947,-3.5975,-3.5984,-3.6108,-3.6005,-3.6012,-3.6016,-3.6019,-3.6325,-3.6329,0,0,0,0,0,0,-3.5683,-3.57,-3.5863,-3.5869,-3.5749,-3.5818,-3.5829,-3.5871,-3.5922,-3.5926,-3.5875,-3.5869,-3.5965,-3.5975,-3.5987,-3.6122,-3.6013,-3.602,-3.6024,-3.6321,-3.6326,-3.633,0,0,0,0,0,0,-3.5678,-3.5698,-3.5859,-3.5784,-3.5803,-3.5826,-3.5873,-3.5874,-3.5902,-3.5931,-3.5934,-3.5899,-3.5962,-3.5977,-3.607,-3.6125,-3.6023,-3.6029,-3.6317,-3.6322,-3.6328,-3.6395,0,0,0,0,0,0,-3.5672,-3.5697,-3.5741,-3.5785,-3.5807,-3.5942,-3.5876,-3.5879,-3.5915,-3.5909,-3.5955,-3.5959,-3.5961,-3.606,-3.6077,-3.6133,-3.6035,-3.6312,-3.6319,-3.6326,-3.6388,-3.6402,-3.6415,0,0,0,0,0,-3.5664,-3.5756,-3.5743,-3.5763,-3.5864,-3.5945,-3.5958,-3.5958,-3.592,-3.5964,-3.5982,-3.5958,-3.6117,-3.607,-3.6089,-3.6148,-3.6308,-3.6317,-3.6325,-3.6382,-3.64,-3.6414,0,0,0,0,0,0,-3.5717,-3.5762,-3.5748,-3.5857,-3.5898,-3.5938,-3.5993,-3.5977,-3.6029,-3.6021,-3.6019,-3.603,-3.6126,-3.6147,-3.6093,-3.626,-3.6206,-3.6219,-3.6243,-3.626,-3.6273,-3.6265,-3.6041,0,0,0,0,0,-3.5742,-3.5805,-3.584,-3.5933,-3.5954,-3.597,-3.6006,-3.6003,-3.6044,-3.6061,-3.6086,-3.6127,-3.6185,-3.6224,-3.628,-3.6392,-3.64,-3.6442,-3.6455,-3.6466,-3.6476,-3.6534,-3.6552,-3.6358,-3.6358,-3.6358,0,0,-3.5792,-3.5824,-3.5864,-3.5944,-3.5975,-3.6039,-3.5985,-3.6055,-3.6102,-3.6071,-3.616,-3.6181,-3.6226,-3.6328,-3.6374,-3.6348,-3.6532,-3.6477,-3.6485,-3.649,-3.6545,-3.6563,-3.658,-3.6364,-3.6363,-3.6362,0,0,-3.5917,-3.5949,-3.6028,-3.6061,-3.6108,-3.6119,-3.6138,-3.6181,-3.6193,-3.6283,-3.626,-3.6316,-3.6419,-3.6451,-3.6481,-3.6618,-3.6596,-3.6636,-3.6705,-3.6762,-3.6777,-3.679,-3.6837,-3.6854,-3.6647,-3.6647,-3.6647,0,-3.5973,-3.607,-3.6071,-3.6143,-3.6178,-3.6154,-3.6233,-3.6264,-3.6328,-3.6352,-3.6322,-3.6449,-3.6478,-3.6586,-3.662,-3.6646,-3.6666,-3.6629,-3.6775,-3.6789,-3.6801,-3.6845,-3.6863,-3.6651,-3.6651,-3.6651,-3.665,0,-3.6136,-3.6203,-3.6261,-3.6323,-3.6365,-3.6441,-3.6452,-3.6494,-3.6488,-3.6501,-3.6592,-3.6626,-3.6687,-3.6714,-3.6708,-3.6821,-3.6803,-3.6775,-3.672,-3.6824,-3.6865,-3.6882,-3.6658,-3.6656,-3.6655,-3.6654,0,0,-3.6294,-3.6356,-3.6377,-3.6405,-3.6456,-3.6507,-3.6582,-3.6642,-3.6677,-3.6723,-3.6783,-3.687,-3.6844,-3.6878,-3.6876,-3.6926,-3.7029,-3.6891,-3.6892,-3.6913,-3.7153,-3.7172,-3.7192,-3.7017,-3.702,-3.7023,-3.7148,0,-3.642,-3.655,-3.6553,-3.6672,-3.6733,-3.6711,-3.6775,-3.6813,-3.6828,-3.6881,-3.6897,-3.6957,-3.692,-3.694,-3.6989,-3.7007,-3.7077,-3.6998,-3.7071,-3.7073,-3.7057,-3.7214,-3.7234,-3.7351,-3.7165,-3.7167,-3.717,0,-3.6585,-3.6635,-3.6759,-3.6801,-3.6826,-3.6884,-3.6939,-3.6991,-3.7033,-3.704,-3.7078,-3.7069,-3.7143,-3.7088,-3.7189,-3.7135,-3.7166,-3.7179,-3.7183,-3.7188,-3.7126,-3.7219,-3.7388,-3.7405,-3.7195,-3.7193,-3.7191,0,-3.6684,-3.6783,-3.687,-3.6895,-3.6946,-3.6986,-3.7009,-3.7048,-3.7084,-3.7132,-3.7155,-3.7212,-3.7242,-3.7286,-3.7291,-3.7251,-3.7392,-3.7338,-3.7398,-3.7397,-3.7426,-3.7423,-3.7599,-3.7451,-3.745,-3.745,-3.745,0,-3.6823,-3.6899,-3.6915,-3.6968,-3.7053,-3.7056,-3.7139,-3.7159,-3.7193,-3.7249,-3.7235,-3.7287,-3.7292,-3.7346,-3.7351,-3.7433,-3.7447,-3.7453,-3.7453,-3.7453,-3.7452,-3.7471,-3.7461,-3.7455,-3.7454,-3.7453,-3.7452,0,-3.6948,-3.6962,-3.7054,-3.7095,-3.7107,-3.7167,-3.7202,-3.7252,-3.7265,-3.7336,-3.7352,-3.7373,-3.7436,-3.7446,-3.752,-3.7523,-3.762,-3.7613,-3.7605,-3.7603,-3.7661,-3.7654,-3.7852,-3.7877,-3.7716,-3.7717,-3.7719,0,-3.7034,-3.7092,-3.7139,-3.7175,-3.72,-3.726,-3.7296,-3.7301,-3.734,-3.7392,-3.7435,-3.7496,-3.7545,-3.7646,-3.7666,-3.7722,-3.7715,-3.778,-3.7723,-3.772,-3.7712,-3.7707,-3.7712,-3.779,-3.7792,-3.7794,-3.7795,0,-3.7184,-3.7188,-3.7242,-3.7298,-3.7342,-3.7387,-3.7428,-3.7459,-3.7469,-3.7513,-3.7577,-3.7615,-3.769,-3.775,-3.7805,-3.7828,-3.7812,-3.7813,-3.7829,-3.7828,-3.782,-3.7822,-3.7632,-3.7808,-3.7806,-3.7806,-3.7805,-3.7804,-3.729,-3.734,-3.7381,-3.7441,-3.7473,-3.7512,-3.7561,-3.758,-3.7634,-3.7695,-3.7695,-3.7764,-3.7804,-3.7877,-3.7903,-3.7957,-3.7935,-3.796,-3.7965,-3.797,-3.7974,-3.7814,-3.7967,-3.7967,-3.7967,-3.7966,-3.7966,0,-3.7438,-3.7463,-3.7518,-3.7577,-3.7624,-3.7607,-3.7652,-3.7692,-3.7753,-3.7792,-3.784,-3.7913,-3.7971,-3.7997,-3.8053,-3.8091,-3.8085,-3.8106,-3.8101,-3.8106,-3.7992,-3.7971,-3.8109,-3.8109,-3.8109,-3.8109,-3.8109,-3.8109,-3.752,-3.7602,-3.7611,-3.7709,-3.7734,-3.7801,-3.7828,-3.7864,-3.7895,-3.7976,-3.8024,-3.8041,-3.8075,-3.8134,-3.8186,-3.8192,-3.8212,-3.8235,-3.8237,-3.8129,-3.8115,-3.8101,-3.8081,-3.824,-3.824,-3.8347,-3.8348,-3.8349]},{"header":{"parameterUnit":"m.s-1","parameterCategory":1,"la1":30.2991,"la2":30.254,"lo1":-89.0895,"lo2":-89.0444,"dy":0.0017,"dx":0.0017,"nx":28,"ny":28,"refTime":"2023-09-20T03:00:00:Z","depth":0,"parameterNumber":3,"parameterNumberName":"V-component_of_WINDS"},"data":[0,0,0,0,0,0,0,0,0,0,0,0,0,0,0,0,0,0,0,0,0,0,0,0,0,0,0,0,0,0,0,0,0,0,0,0,0,0,0,0,0,0,0,0,0,0,0,0,0,0,0,0,0,0,0,0,0,0,1.1879,1.1878,0,1.1838,1.1838,1.1837,1.1757,1.1755,1.1753,1.1752,1.1712,1.1713,1.1713,0,0,0,0,0,0,0,0,0,0,0,0,0,1.1889,1.1889,1.1879,1.1878,1.1878,1.1838,1.1838,1.1837,1.1757,1.1755,1.1753,1.1751,1.1712,1.1712,1.1713,0,0,0,0,0,0,0,0,0,0,0,0,0,1.187,1.1889,1.1879,1.1833,1.1828,1.1838,1.1838,1.1837,1.1757,1.1755,1.1752,1.175,1.1712,1.1712,1.1713,1.1765,0,0,1.1715,1.1715,0,0,0,0,0,0,0,0,1.1871,1.187,1.184,1.1836,1.1831,1.18,1.1826,1.1813,1.1758,1.1784,1.1752,1.1749,1.1743,1.1741,1.1739,1.1763,1.1761,1.1715,1.1715,1.1716,1.1716,0,0,0,0,0,0,0,1.1873,1.1871,1.1863,1.184,1.1834,1.1815,1.181,1.1824,1.1778,1.1782,1.1776,1.1772,1.174,1.1739,1.1737,1.1761,1.1715,1.1716,1.1716,1.1716,1.1825,1.1828,0,0,0,0,0,0,1.188,1.1873,1.1864,1.1861,1.1845,1.1817,1.1811,1.1812,1.1777,1.177,1.1774,1.1768,1.1739,1.1737,1.1736,1.1793,1.1716,1.1716,1.1717,1.1823,1.1826,1.1828,0,0,0,0,0,0,1.1881,1.188,1.1865,1.1865,1.1862,1.1819,1.1821,1.1813,1.1811,1.1772,1.1763,1.178,1.1737,1.1735,1.1758,1.179,1.1717,1.1717,1.182,1.1824,1.1827,1.1909,0,0,0,0,0,0,1.1881,1.1881,1.19,1.1866,1.1862,1.1888,1.1823,1.1814,1.1812,1.1804,1.1775,1.1768,1.1735,1.1758,1.1759,1.179,1.1718,1.1817,1.1821,1.1826,1.1903,1.1915,1.1925,0,0,0,0,0,1.1882,1.1925,1.1901,1.19,1.1885,1.189,1.1888,1.1848,1.1815,1.1833,1.1808,1.1769,1.1788,1.1761,1.1761,1.1793,1.1814,1.182,1.1826,1.1898,1.1913,1.1925,0,0,0,0,0,0,1.1963,1.1919,1.1892,1.1926,1.1912,1.1876,1.1898,1.1864,1.186,1.1853,1.1805,1.1799,1.1828,1.1814,1.1784,1.1842,1.1795,1.1801,1.185,1.1863,1.1874,1.1876,1.1718,0,0,0,0,0,1.1985,1.1992,1.1954,1.1987,1.1982,1.1942,1.1942,1.1913,1.1897,1.1891,1.1868,1.1855,1.1857,1.186,1.186,1.1902,1.1894,1.1924,1.1935,1.1945,1.195,1.197,1.1982,1.1847,1.1847,1.1847,0,0,1.203,1.2007,1.2014,1.2003,1.1989,1.1998,1.1937,1.1949,1.1956,1.1893,1.1913,1.1896,1.1878,1.191,1.1923,1.1899,1.1986,1.1952,1.1959,1.1959,1.1977,1.199,1.2001,1.1851,1.185,1.1849,0,0,1.2115,1.2099,1.2124,1.2112,1.2091,1.2065,1.2071,1.2041,1.2027,1.2046,1.1999,1.2007,1.2012,1.2001,1.1996,1.208,1.2043,1.2082,1.2138,1.2159,1.2169,1.2178,1.2206,1.2217,1.2087,1.2088,1.2088,0,1.2173,1.2184,1.2142,1.2157,1.2153,1.2097,1.2122,1.2112,1.2094,1.2092,1.2065,1.2071,1.2055,1.2084,1.2104,1.2103,1.2108,1.2083,1.2171,1.218,1.2188,1.2214,1.2225,1.2092,1.2092,1.2091,1.2091,0,1.2256,1.2265,1.2288,1.227,1.2269,1.229,1.2251,1.2255,1.2227,1.2203,1.2224,1.2203,1.2198,1.2203,1.2176,1.2228,1.2213,1.218,1.2131,1.2206,1.223,1.224,1.2099,1.2097,1.2096,1.2095,0,0,1.2389,1.2349,1.2357,1.2349,1.2323,1.2329,1.2348,1.2342,1.2346,1.2336,1.235,1.2357,1.2325,1.232,1.2291,1.2309,1.2375,1.2273,1.2272,1.2291,1.243,1.2454,1.2466,1.2352,1.2354,1.2355,1.2431,0,1.2467,1.2494,1.2457,1.2493,1.25,1.2449,1.2464,1.2451,1.243,1.2434,1.2411,1.2416,1.2375,1.2372,1.2388,1.2364,1.2402,1.2358,1.2363,1.2364,1.2366,1.2479,1.2504,1.2576,1.244,1.2442,1.2443,0,1.2561,1.2554,1.2591,1.2563,1.2565,1.2579,1.2571,1.2576,1.256,1.2544,1.2538,1.2504,1.252,1.2476,1.2497,1.2468,1.2469,1.2458,1.246,1.2456,1.2406,1.2477,1.2598,1.2608,1.2457,1.2456,1.2455,0,1.2652,1.2653,1.2674,1.2669,1.2637,1.2649,1.2636,1.2618,1.2617,1.2611,1.261,1.2606,1.2604,1.2602,1.2568,1.2538,1.2594,1.2546,1.258,1.258,1.2591,1.259,1.2712,1.2596,1.2596,1.2596,1.2595,0,1.2741,1.2765,1.2714,1.2727,1.2753,1.2711,1.2738,1.272,1.2705,1.2714,1.267,1.268,1.2635,1.264,1.2614,1.2635,1.2635,1.2622,1.2614,1.2624,1.2626,1.2622,1.2615,1.2598,1.2598,1.2597,1.2597,0,1.2846,1.2813,1.2832,1.2802,1.2794,1.2814,1.2788,1.2799,1.2776,1.2788,1.2789,1.2753,1.2757,1.2723,1.2721,1.2703,1.2736,1.2721,1.2741,1.2735,1.277,1.2767,1.2892,1.2906,1.2783,1.2784,1.2786,0,1.2903,1.292,1.2891,1.2894,1.2883,1.2889,1.2888,1.2848,1.2849,1.2833,1.2846,1.2846,1.2843,1.2852,1.2826,1.2824,1.2807,1.2851,1.2806,1.2816,1.2805,1.2804,1.2805,1.286,1.2861,1.2863,1.2864,0,1.3009,1.2992,1.2992,1.2986,1.2986,1.298,1.2971,1.2976,1.2934,1.2937,1.294,1.2938,1.2936,1.2936,1.2929,1.2917,1.2883,1.2879,1.2886,1.2895,1.2905,1.2898,1.2764,1.2875,1.2874,1.2873,1.2873,1.2872,1.309,1.3102,1.3084,1.3085,1.3075,1.3068,1.3076,1.3055,1.3056,1.3051,1.3028,1.3035,1.3019,1.3006,1.2998,1.3003,1.2981,1.2992,1.2995,1.2997,1.3003,1.2907,1.3002,1.3001,1.3001,1.3001,1.3,0,1.3191,1.3177,1.3179,1.3168,1.3169,1.3138,1.3127,1.313,1.3137,1.3125,1.3124,1.3127,1.3128,1.3103,1.31,1.3109,1.3094,1.311,1.3107,1.3105,1.3023,1.3016,1.3122,1.3122,1.3122,1.3122,1.3122,1.3122,1.3244,1.3263,1.3245,1.3258,1.3244,1.325,1.3246,1.324,1.323,1.3236,1.3236,1.3219,1.3202,1.3198,1.3198,1.319,1.319,1.3211,1.3199,1.3122,1.3111,1.3099,1.3092,1.3212,1.3213,1.3279,1.328,1.328]}]]